FW3211 Weather Reports


Display with metric or nautical units.
time (UTC)temp
F
wind
direction
speed
MPH
gust
MPH
rain 1hr
in
rain 24hr
in
rain mn
in
humidity
%
barometer
mb
20260901081336 79 117 2.0 4.0 0.00 0.00 0.00 69 1019.7
20260901080830 79 119 2.0 4.0 0.00 0.00 0.00 69 1019.7
20260901080328 79 108 2.0 4.0 0.00 0.00 0.00 68 1019.7
20260901075829 79 123 2.0 4.0 0.00 0.00 0.00 68 1019.6
20260901075327 79 180 2.0 4.0 0.00 0.00 0.00 69 1019.6
20260901074829 79 165 2.0 5.0 0.00 0.00 0.00 69 1019.6
20260901074324 79 163 2.0 5.0 0.00 0.00 0.00 68 1019.5
20260901073823 79 168 2.0 5.0 0.00 0.00 0.00 68 1019.4
20260901073615 79 116 2.0 5.0 0.00 0.00 0.00 70 1019.4
20260901072818 79 166 2.0 4.0 0.00 0.00 0.00 70 1019.2
20260901072318 79 167 1.0 4.0 0.00 0.00 0.00 69 1019.4
20260901071818 78 183 1.0 4.0 0.00 0.00 0.00 69 1019.4
20260901071318 78 114 1.0 3.0 0.00 0.00 0.00 69 1019.4
20260901070817 78 114 1.0 3.0 0.00 0.00 0.00 69 1019.2
20260901070346 78 114 2.0 3.0 0.00 0.00 0.00 69 1019.2
20260901070329 78 113 1.0 3.0 0.00 0.00 0.00 70 1019.2
20260901065308 78 114 2.0 3.0 0.00 0.00 0.00 68 1019.1
20260901064811 79 112 1.0 3.0 0.00 0.00 0.00 68 1019.1
20260901064545 79 118 1.0 3.0 0.00 0.00 0.00 69 1019.1
20260901063806 78 118 1.0 4.0 0.00 0.00 0.00 69 1019.0
20260901063311 78 118 1.0 4.0 0.00 0.00 0.00 69 1019.0
20260901062805 78 122 1.0 3.0 0.00 0.00 0.00 70 1019.0
20260901062309 78 38 1.0 3.0 0.00 0.00 0.00 70 1018.9
20260901061802 77 33 1.0 2.0 0.00 0.00 0.00 70 1018.9
20260901061301 77 31 1.0 2.0 0.00 0.00 0.00 71 1018.9
20260901060802 76 4 1.0 4.0 0.00 0.00 0.00 71 1018.8
20260901060301 76 52 1.0 4.0 0.00 0.00 0.00 70 1018.8
20260901055759 76 39 1.0 3.0 0.00 0.00 0.00 71 1018.8
20260901055301 75 48 1.0 4.0 0.00 0.00 0.00 71 1018.7
20260901054758 74 50 1.0 4.0 0.00 0.00 0.00 71 1018.7
20260901054255 74 16 1.0 3.0 0.00 0.00 0.00 71 1018.7
20260901053749 74 270 1.0 4.0 0.00 0.00 0.00 71 1018.7
20260901053535 74 29 1.0 4.0 0.00 0.00 0.00 72 1018.6
20260901052740 73 29 2.0 3.0 0.00 0.00 0.00 71 1018.6
20260901052238 73 56 2.0 3.0 0.00 0.00 0.00 72 1018.7
20260901052053 73 336 1.0 3.0 0.00 0.00 0.00 73 1018.6
20260901051242 73 333 1.0 4.0 0.00 0.00 0.00 73 1018.6
20260901051017 73 309 1.0 4.0 0.00 0.00 0.00 73 1018.6
20260901050239 73 332 1.0 3.0 0.00 0.00 0.00 72 1018.7
20260901045737 73 37 1.0 4.0 0.00 0.00 0.00 72 1018.6
20260901045240 73 37 2.0 4.0 0.00 0.00 0.00 72 1018.6
20260901044736 73 283 1.0 4.0 0.00 0.00 0.00 72 1018.5
20260901044236 73 50 1.0 4.0 0.00 0.00 0.00 72 1018.5
20260901044014 73 325 2.0 4.0 0.00 0.00 0.00 72 1018.6
20260901043235 73 295 2.0 4.0 0.00 0.00 0.00 72 1018.5
20260901042817 73 16 1.0 3.0 0.00 0.00 0.00 72 1018.5
20260901042758 73 312 1.0 3.0 0.00 0.00 0.00 71 1018.5
20260901041733 73 12 1.0 4.0 0.00 0.00 0.00 71 1018.5
20260901041233 73 12 2.0 4.0 0.00 0.00 0.00 72 1018.5
20260901040733 73 26 1.0 3.0 0.00 0.00 0.00 72 1018.5
20260901040233 73 26 2.0 4.0 0.00 0.00 0.00 72 1018.5
20260901035732 73 14 2.0 5.0 0.00 0.00 0.00 72 1018.6
20260901035233 73 342 2.0 5.0 0.00 0.00 0.00 71 1018.5
20260901034733 73 339 2.0 3.0 0.00 0.00 0.00 72 1018.5
20260901034234 72 334 2.0 4.0 0.00 0.00 0.00 71 1018.4
20260901034024 72 23 2.0 5.0 0.00 0.00 0.00 72 1018.4
20260901033235 72 24 1.0 5.0 0.00 0.00 0.00 71 1018.5
20260901032737 72 46 1.0 3.0 0.00 0.00 0.00 72 1018.5
20260901032235 72 46 2.0 3.0 0.00 0.00 0.00 71 1018.4
20260901031734 72 47 2.0 3.0 0.00 0.00 0.00 72 1018.4
20260901031233 72 57 1.0 3.0 0.00 0.00 0.00 72 1018.4
20260901030737 72 57 1.0 3.0 0.00 0.00 0.00 71 1018.4
20260901030233 72 57 1.0 3.0 0.00 0.00 0.00 72 1018.4
20260901025733 72 57 1.0 3.0 0.00 0.00 0.00 72 1018.4
20260901025232 72 57 1.0 3.0 0.00 0.00 0.00 71 1018.4
20260901024738 72 312 0.0 2.0 0.00 0.00 0.00 72 1018.4
20260901024235 72 312 0.0 1.0 0.00 0.00 0.00 71 1018.5
20260901023732 72 312 0.0 2.0 0.00 0.00 0.00 71 1018.4
20260901023233 72 312 1.0 3.0 0.00 0.00 0.00 71 1018.4
20260901023018 72 312 1.0 3.0 0.00 0.00 0.00 71 1018.4
20260901022232 72 354 1.0 3.0 0.00 0.00 0.00 71 1018.3
20260901021733 72 354 2.0 3.0 0.00 0.00 0.00 71 1018.3
20260901021234 72 354 1.0 3.0 0.00 0.00 0.00 70 1018.4
20260901020734 71 332 1.0 3.0 0.00 0.00 0.00 71 1018.4
20260901020232 71 27 1.0 3.0 0.00 0.00 0.00 71 1018.4
20260901020036 71 27 1.0 3.0 0.00 0.00 0.00 71 1018.4
20260901015235 71 27 1.0 2.0 0.00 0.00 0.00 71 1018.4
20260901014736 71 27 1.0 3.0 0.00 0.00 0.00 71 1018.4
20260901014233 71 27 1.0 3.0 0.00 0.00 0.00 70 1018.3
20260901013740 71 25 1.0 2.0 0.00 0.00 0.00 70 1018.3
20260901013526 71 24 1.0 3.0 0.00 0.00 0.00 70 1018.3
20260901012735 71 24 0.0 3.0 0.00 0.00 0.00 70 1018.4
20260901012232 71 342 0.0 1.0 0.00 0.00 0.00 71 1018.4
20260901011735 71 342 0.0 2.0 0.00 0.00 0.00 70 1018.5
20260901011232 71 342 1.0 3.0 0.00 0.00 0.00 70 1018.5
20260901010733 71 342 1.0 3.0 0.00 0.00 0.00 70 1018.5
20260901010232 71 342 1.0 3.0 0.00 0.00 0.00 70 1018.5
20260901005732 71 4 1.0 3.0 0.00 0.00 0.00 70 1018.5
20260901005314 71 4 1.0 2.0 0.00 0.00 0.00 70 1018.5
20260901005255 71 50 1.0 3.0 0.00 0.00 0.00 70 1018.5
20260901004233 71 4 0.0 2.0 0.00 0.00 0.00 70 1018.5
20260901003732 71 4 1.0 3.0 0.00 0.00 0.00 70 1018.5
20260901003232 71 4 1.0 3.0 0.00 0.00 0.00 70 1018.6
20260901002733 71 4 1.0 2.0 0.00 0.00 0.00 70 1018.6
20260901002236 71 345 1.0 3.0 0.00 0.00 0.00 70 1018.6
20260901001732 71 350 1.0 3.0 0.00 0.00 0.00 69 1018.6
20260901001523 71 329 1.0 3.0 0.00 0.00 0.00 69 1018.6
20260901001016 70 329 2.0 4.0 0.00 0.00 0.00 70 1018.6
20260901000230 70 329 2.0 4.0 0.00 0.00 0.00 70 1018.6
20260901000119 70 312 1.0 3.0 0.00 0.00 0.00 72 1018.7
20260901000113 70 312 1.0 3.0 0.00 0.00 0.00 72 1018.7
20260831235808 70 359 2.0 4.0 0.00 0.00 0.00 71 1018.7
20260831234226 70 311 1.0 3.0 0.00 0.00 0.00 72 1018.7
20260831233725 70 308 1.0 3.0 0.00 0.00 0.00 72 1018.8
20260831233226 70 308 1.0 3.0 0.00 0.00 0.00 73 1018.8
20260831232726 70 308 2.0 3.0 0.00 0.00 0.00 72 1018.8
20260831232225 70 308 1.0 2.0 0.00 0.00 0.00 72 1018.8
20260831231723 70 308 1.0 2.0 0.00 0.00 0.00 72 1018.8
20260831231226 70 308 0.0 2.0 0.00 0.00 0.00 72 1018.8
20260831230724 70 308 0.0 2.0 0.00 0.00 0.00 71 1018.8
20260831230235 70 308 1.0 2.0 0.00 0.00 0.00 71 1018.8
20260831225723 70 308 1.0 2.0 0.00 0.00 0.00 71 1018.8
20260831225221 70 308 1.0 2.0 0.00 0.00 0.00 71 1018.8
20260831224717 70 308 1.0 2.0 0.00 0.00 0.00 71 1018.8
20260831224220 70 308 1.0 2.0 0.00 0.00 0.00 71 1018.8
20260831223718 70 308 1.0 3.0 0.00 0.00 0.00 71 1018.7
20260831223219 70 308 2.0 3.0 0.00 0.00 0.00 71 1018.7
20260831222718 70 308 2.0 3.0 0.00 0.00 0.00 71 1018.7
20260831222216 71 305 2.0 3.0 0.00 0.00 0.00 71 1018.7
20260831221716 71 301 2.0 3.0 0.00 0.00 0.00 71 1018.7
20260831221215 71 301 2.0 3.0 0.00 0.00 0.00 71 1018.7
20260831220952 71 297 2.0 4.0 0.00 0.00 0.00 71 1018.6
20260831220213 71 312 2.0 4.0 0.00 0.00 0.00 71 1018.6
20260831215713 71 335 2.0 3.0 0.00 0.00 0.00 71 1018.6
20260831215211 71 333 1.0 3.0 0.00 0.00 0.00 71 1018.6
20260831214710 71 334 2.0 3.0 0.00 0.00 0.00 72 1018.5
20260831214211 71 301 2.0 3.0 0.00 0.00 0.00 72 1018.5
20260831213710 71 306 2.0 3.0 0.00 0.00 0.00 72 1018.6
20260831213214 71 306 2.0 3.0 0.00 0.00 0.00 72 1018.5
20260831212711 71 306 2.0 4.0 0.00 0.00 0.00 72 1018.5
20260831212211 71 306 1.0 4.0 0.00 0.00 0.00 72 1018.6
20260831211712 71 305 1.0 3.0 0.00 0.00 0.00 72 1018.5
20260831211444 71 304 2.0 3.0 0.00 0.00 0.00 72 1018.5
20260831210711 71 297 2.0 3.0 0.00 0.00 0.00 72 1018.5
20260831210208 71 297 2.0 3.0 0.00 0.00 0.00 73 1018.6
20260831205708 71 297 1.0 3.0 0.00 0.00 0.00 72 1018.5
20260831205206 71 297 1.0 3.0 0.00 0.00 0.00 73 1018.5
20260831204706 71 297 2.0 4.0 0.00 0.00 0.00 73 1018.5
20260831204203 71 297 2.0 4.0 0.00 0.00 0.00 73 1018.5
20260831203947 71 304 2.0 4.0 0.00 0.00 0.00 73 1018.4
20260831203205 71 323 1.0 4.0 0.00 0.00 0.00 73 1018.3
20260831202949 71 282 1.0 3.0 0.00 0.00 0.00 73 1018.2
20260831202203 71 282 1.0 3.0 0.00 0.00 0.00 73 1018.2
20260831201706 71 282 1.0 3.0 0.00 0.00 0.00 73 1018.1
20260831201245 71 256 1.0 3.0 0.00 0.00 0.00 73 1018.1
20260831201225 71 243 1.0 3.0 0.00 0.00 0.00 73 1018.1
20260831200208 72 256 1.0 3.0 0.00 0.00 0.00 73 1018.1
20260831195706 72 256 1.0 2.0 0.00 0.00 0.00 73 1018.1
20260831195448 72 256 1.0 2.0 0.00 0.00 0.00 73 1018.0
20260831194706 72 264 1.0 3.0 0.00 0.00 0.00 73 1018.0
20260831194207 72 264 1.0 3.0 0.00 0.00 0.00 73 1018.0
20260831193704 72 239 1.0 3.0 0.00 0.00 0.00 73 1018.0
20260831193204 72 239 1.0 3.0 0.00 0.00 0.00 73 1018.0
20260831192705 72 247 1.0 3.0 0.00 0.00 0.00 73 1018.0
20260831192203 72 280 1.0 2.0 0.00 0.00 0.00 73 1018.0
20260831191705 72 280 1.0 3.0 0.00 0.00 0.00 73 1018.0
20260831191206 72 286 1.0 3.0 0.00 0.00 0.00 73 1017.9
20260831190951 72 264 1.0 4.0 0.00 0.00 0.00 73 1017.9
20260831190208 72 263 1.0 4.0 0.00 0.00 0.00 73 1017.9
20260831185703 72 287 1.0 3.0 0.00 0.00 0.00 73 1017.9
20260831185201 72 287 1.0 3.0 0.00 0.00 0.00 73 1017.8
20260831184701 72 287 1.0 3.0 0.00 0.00 0.00 73 1017.7
20260831184202 72 286 1.0 4.0 0.00 0.00 0.00 73 1017.7
20260831183701 72 280 1.0 4.0 0.00 0.00 0.00 74 1017.7
20260831183204 72 276 1.0 3.0 0.00 0.00 0.00 73 1017.6
20260831182657 73 193 0.0 2.0 0.00 0.00 0.00 73 1017.6
20260831182154 73 192 0.0 2.0 0.00 0.00 0.00 73 1017.6
20260831181649 73 192 0.0 1.0 0.00 0.00 0.00 73 1017.6
20260831181007 73 193 1.0 3.0 0.00 0.00 0.00 73 1017.7
20260831180505 73 193 1.0 3.0 0.00 0.00 0.00 73 1017.7
20260831180013 73 244 1.0 3.0 0.00 0.00 0.00 74 1017.7
20260831175509 73 243 1.0 3.0 0.00 0.00 0.00 74 1017.7
20260831175003 73 210 2.0 4.0 0.00 0.00 0.00 74 1017.6
20260831174504 73 220 2.0 4.0 0.00 0.00 0.00 74 1017.6
20260831174006 73 220 1.0 4.0 0.00 0.00 0.00 74 1017.6
20260831173504 73 154 1.0 4.0 0.00 0.00 0.00 74 1017.6
20260831173002 73 317 1.0 4.0 0.00 0.00 0.00 74 1017.6
20260831172459 73 242 2.0 5.0 0.00 0.00 0.00 74 1017.6
20260831171958 73 187 2.0 5.0 0.00 0.00 0.00 75 1017.6
20260831171748 74 148 1.0 4.0 0.00 0.00 0.00 75 1017.6
20260831170958 74 218 2.0 6.0 0.00 0.00 0.00 75 1017.6
20260831170733 74 105 2.0 6.0 0.00 0.00 0.00 75 1017.6
20260831170037 74 185 1.0 3.0 0.00 0.00 0.00 76 1017.7
20260831170019 74 228 1.0 4.0 0.00 0.00 0.00 76 1017.7
20260831165237 74 185 2.0 7.0 0.00 0.00 0.00 77 1017.8
20260831164453 74 184 2.0 7.0 0.00 0.00 0.00 77 1017.8
20260831163952 74 216 2.0 4.0 0.00 0.00 0.00 77 1017.7
20260831163452 74 131 1.0 4.0 0.00 0.00 0.00 77 1017.7
20260831162952 74 171 1.0 4.0 0.00 0.00 0.00 77 1017.7
20260831162449 74 170 2.0 5.0 0.00 0.00 0.00 77 1017.8
20260831162311 74 178 2.0 5.0 0.00 0.00 0.00 78 1017.8
20260831162301 74 132 2.0 5.0 0.00 0.00 0.00 77 1017.7
20260831160949 74 189 2.0 4.0 0.00 0.00 0.00 78 1017.7
20260831160447 74 163 2.0 4.0 0.00 0.00 0.00 77 1017.8
20260831155948 74 181 2.0 4.0 0.00 0.00 0.00 77 1017.7
20260831155446 74 158 1.0 3.0 0.00 0.00 0.00 77 1017.8
20260831154948 74 150 1.0 4.0 0.00 0.00 0.00 77 1017.8
20260831154731 74 192 1.0 4.0 0.00 0.00 0.00 77 1017.9
20260831153946 75 223 1.0 2.0 0.00 0.00 0.00 78 1017.8
20260831153444 75 223 1.0 4.0 0.00 0.00 0.00 78 1017.9
20260831152945 75 223 1.0 4.0 0.00 0.00 0.00 78 1018.0
20260831152448 75 145 1.0 3.0 0.00 0.00 0.00 78 1018.0
20260831151939 75 137 1.0 4.0 0.00 0.00 0.00 78 1018.0
20260831151723 75 128 2.0 4.0 0.00 0.00 0.00 78 1018.0
20260831151225 75 246 2.0 5.0 0.00 0.00 0.00 77 1018.0
20260831150435 75 195 2.0 5.0 0.00 0.00 0.00 77 1018.1
20260831145934 75 189 2.0 4.0 0.00 0.00 0.00 77 1018.1
20260831145432 75 228 2.0 6.0 0.00 0.00 0.00 77 1018.2
20260831144935 76 157 2.0 6.0 0.00 0.00 0.00 77 1018.2
20260831144714 76 160 2.0 7.0 0.00 0.00 0.00 77 1018.2
20260831143933 76 185 2.0 7.0 0.00 0.00 0.00 77 1018.2
20260831143434 76 159 2.0 7.0 0.00 0.00 0.00 78 1018.1
20260831143221 76 160 3.0 7.0 0.00 0.00 0.00 78 1018.2
20260831142433 76 154 2.0 7.0 0.00 0.00 0.00 78 1018.1
20260831141933 76 168 3.0 7.0 0.00 0.00 0.00 78 1018.0
20260831141433 76 74 3.0 7.0 0.00 0.00 0.00 77 1018.0
20260831140933 76 115 2.0 6.0 0.00 0.00 0.00 77 1018.0
20260831140433 77 185 2.0 4.0 0.00 0.00 0.00 76 1018.1
20260831140218 76 183 2.0 6.0 0.00 0.00 0.00 77 1018.1
20260831135433 76 157 3.0 9.0 0.00 0.00 0.00 77 1018.1
20260831135212 76 98 3.0 9.0 0.00 0.00 0.00 76 1018.1
20260831134432 77 145 3.0 10.0 0.00 0.00 0.00 76 1018.1
20260831133934 77 108 4.0 10.0 0.00 0.00 0.00 75 1018.1
20260831133434 78 110 3.0 9.0 0.00 0.00 0.00 74 1018.1
20260831132934 78 170 3.0 6.0 0.00 0.00 0.00 73 1018.1
20260831132436 78 160 3.0 7.0 0.00 0.00 0.00 74 1018.1
20260831132254 78 109 2.0 6.0 0.00 0.00 0.00 73 1018.0
20260831132248 78 142 3.0 7.0 0.00 0.00 0.00 73 1018.0
20260831130940 78 129 2.0 7.0 0.00 0.00 0.00 73 1018.1
20260831130433 78 145 2.0 7.0 0.00 0.00 0.00 73 1018.1
20260831125933 78 171 3.0 6.0 0.00 0.00 0.00 73 1018.1
20260831125432 78 177 3.0 6.0 0.00 0.00 0.00 72 1018.1
20260831125217 78 135 3.0 9.0 0.00 0.00 0.00 74 1018.1
20260831124433 77 194 3.0 9.0 0.00 0.00 0.00 73 1018.1
20260831123931 78 160 3.0 9.0 0.00 0.00 0.00 72 1018.1
20260831123431 78 189 3.0 9.0 0.00 0.00 0.00 72 1018.1
20260831122925 77 126 3.0 6.0 0.00 0.00 0.00 73 1018.1
20260831122420 77 167 3.0 9.0 0.00 0.00 0.00 74 1018.2
20260831121920 77 130 3.0 9.0 0.00 0.00 0.00 74 1018.2
20260831121416 77 169 3.0 8.0 0.00 0.00 0.00 75 1018.2
20260831120924 77 151 4.0 8.0 0.00 0.00 0.00 75 1018.2
20260831120414 77 183 4.0 10.0 0.00 0.00 0.00 75 1018.2
20260831115911 77 138 4.0 10.0 0.00 0.00 0.00 75 1018.3
20260831115407 77 143 4.0 10.0 0.00 0.00 0.00 75 1018.3
20260831114907 77 150 4.0 10.0 0.00 0.00 0.00 75 1018.3
20260831114407 77 143 4.0 10.0 0.00 0.00 0.00 76 1018.3
20260831114149 77 156 5.0 11.0 0.00 0.00 0.00 75 1018.3
20260831113405 77 119 4.0 11.0 0.00 0.00 0.00 75 1018.4
20260831112906 77 200 3.0 10.0 0.00 0.00 0.00 74 1018.4
20260831112408 77 95 3.0 9.0 0.00 0.00 0.00 75 1018.4
20260831111904 77 119 3.0 9.0 0.00 0.00 0.00 75 1018.5
20260831111404 77 122 4.0 8.0 0.00 0.00 0.00 75 1018.5
20260831110906 77 182 3.0 8.0 0.00 0.00 0.00 74 1018.4
20260831110433 77 219 3.0 7.0 0.00 0.00 0.00 74 1018.4
20260831105900 77 155 3.0 7.0 0.00 0.00 0.00 74 1018.4
20260831105726 78 181 3.0 7.0 0.00 0.00 0.00 73 1018.5
20260831105428 78 242 3.0 7.0 0.00 0.00 0.00 74 1018.5
20260831104358 78 124 3.0 8.0 0.00 0.00 0.00 73 1018.5
20260831103856 78 128 4.0 8.0 0.00 0.00 0.00 74 1018.5
20260831103357 78 149 3.0 7.0 0.00 0.00 0.00 74 1018.5
20260831102857 78 149 3.0 7.0 0.00 0.00 0.00 74 1018.5
20260831102357 77 170 3.0 7.0 0.00 0.00 0.00 74 1018.4
20260831101852 78 169 4.0 8.0 0.00 0.00 0.00 74 1018.4
20260831101354 77 101 4.0 8.0 0.00 0.00 0.00 74 1018.5
20260831100853 77 118 4.0 9.0 0.00 0.00 0.00 73 1018.5
20260831100350 78 87 3.0 9.0 0.00 0.00 0.00 71 1018.5
20260831095852 78 136 3.0 8.0 0.00 0.00 0.00 71 1018.5
20260831095354 79 111 2.0 7.0 0.00 0.00 0.00 71 1018.4
20260831094851 79 172 2.0 7.0 0.00 0.00 0.00 71 1018.5
20260831094632 79 239 3.0 7.0 0.00 0.00 0.00 70 1018.4
20260831093851 78 123 3.0 7.0 0.00 0.00 0.00 70 1018.5
20260831093351 78 139 3.0 8.0 0.00 0.00 0.00 70 1018.4
20260831092854 78 90 2.0 8.0 0.00 0.00 0.00 69 1018.6
20260831092350 78 197 2.0 5.0 0.00 0.00 0.00 70 1018.5
20260831091851 78 159 2.0 6.0 0.00 0.00 0.00 70 1018.5
20260831091353 77 184 2.0 6.0 0.00 0.00 0.00 70 1018.5
20260831090849 77 189 2.0 6.0 0.00 0.00 0.00 70 1018.5
20260831090349 78 130 2.0 6.0 0.00 0.00 0.00 69 1018.5
20260831085847 77 182 2.0 5.0 0.00 0.00 0.00 68 1018.5
20260831085638 77 160 2.0 6.0 0.00 0.00 0.00 68 1018.5
20260831084843 77 110 2.0 6.0 0.00 0.00 0.00 68 1018.5
20260831084636 77 101 2.0 4.0 0.00 0.00 0.00 69 1018.6
20260831084134 77 138 2.0 5.0 0.00 0.00 0.00 69 1018.6
20260831083344 76 163 2.0 6.0 0.00 0.00 0.00 71 1018.6
20260831082843 76 147 2.0 6.0 0.00 0.00 0.00 71 1018.6
20260831082342 76 122 2.0 5.0 0.00 0.00 0.00 71 1018.6
20260831081839 76 124 2.0 5.0 0.00 0.00 0.00 71 1018.5